Regional Weather Roundup
Issued by NWS

Home | Current Version | Previous Version | Graphics & Text | Print | Product List | Glossary On
Versions: 1 2 3 4 5 6 7 8 9 10 11 12 13 14 15 16 17 18 19 20 21 22 23 24 25 26 27 28 29 30 31 32 33 34 35 36 37 38 39 40 41 42 43 44 45 46 47 48 49 50
000
ASUS43 KLMK 221802
RWRKY
KENTUCKY REGIONAL WEATHER ROUNDUP
NATIONAL WEATHER SERVICE LOUISVILLE KY
200 PM EDT THU JUN 22 2017

NOTE "FAIR" INDICATES FEW OR NO CLOUDS BELOW 12,000 FEET
WITH NO SIGNIFICANT WEATHER AND/OR OBSTRUCTIONS TO VISIBILITY.

KYZ001>023-026-027-061>063-070>075-221900-
WESTERN AND SOUTH CENTRAL KENTUCKY

CITY           SKY/WX    TMP DP  RH WIND       PRES   REMARKS
PADUCAH        CLOUDY    77  72  84 S9        29.87F
HENDERSON      CLOUDY    76  71  85 SE12      29.92F
OWENSBORO      LGT RAIN  73  71  93 SE14      29.94F
HOPKINSVILLE   DRIZZLE   74  74  97 SE8       29.92F
BOWLING GREEN  HVY RAIN  72  72 100 SE15G22   29.98F VSB 3/4
GLASGOW        NOT AVBL
$$

KYZ024-025-028>034-038-045-046-053-221900-
NORTH CENTRAL KENTUCKY

CITY           SKY/WX    TMP DP  RH WIND       PRES   REMARKS
LOUISVILLE/SDF LGT RAIN  78  70  76 S16       30.00F
LOUISVILLE/LOU CLOUDY    78  71  79 S10G20    30.01F
FORT KNOX      LGT RAIN  73  71  94 S10       29.99F
$$

KYZ035>037-039>044-047>052-055>060-089>105-221900-
NORTHEAST KENTUCKY

CITY           SKY/WX    TMP DP  RH WIND       PRES   REMARKS
LEXINGTON      LGT RAIN  74  69  85 S9        30.06F
COVINGTON      CLOUDY    80  70  71 S13       30.01F
FRANKFORT      LGT RAIN  75  68  78 S14       30.03F
$$

KYZ054-064>069-076>088-106>120-221900-
SOUTHEAST KENTUCKY

CITY           SKY/WX    TMP DP  RH WIND       PRES   REMARKS
JACKSON        LGT RAIN  71  69  93 CALM      30.13S
LONDON         LGT RAIN  71  68  90 SE7       30.09F
SOMERSET       DRIZZLE   72  72 100 SE6       30.08F
MIDDLESBORO    DRIZZLE   74  71  91 CALM      30.11F
MONTICELLO     LGT RAIN  74  71  91 E8        30.07F
$$





USA.gov is the U.S. government's official web portal to all federal, state and local government web resources and services.